Date String (YYYY-MM-DD hh:mm:ss) UTC,Instrument flags,Ambient pressure (hPa),Sample flow (lpm),Bypass flow (lpm),Sample temperature (°C),Ambient temperature (°C),ASC tube jacket temperature (°C),LED temperature (°C),Box temperature (°C),Sample RH (%),Span deviation,Mass concentration (μg/m³),Mass concentration (μg/m³),Mass concentration (μg/m³)
DateTimeUTC,F1_M11,P_M11,Q1_M11,Q2_M11,T1_M11,T2_M11,T3_M11,T4_M11,T5_M11,U1_M11,ZSPAN_M11,X2_M11,X0_M11,X1_M11
2023-04-05 03:00:00,,0822.4,4.99,0.00,22.6,21.1,00.0,31.0,24.2,11.5,0000.0,0003.97,0007.67,0003.60
2023-04-05 03:01:00,,0822.5,5.01,0.00,22.7,22.2,00.0,30.9,24.6,11.5,0000.0,0003.97,0007.70,0003.59
2023-04-05 03:02:00,,0822.4,4.99,0.00,22.8,23.1,00.0,31.0,24.8,11.4,0000.0,0003.96,0007.70,0003.59
2023-04-05 03:03:00,,0822.6,4.98,0.00,22.9,23.1,00.0,31.0,24.7,11.4,0000.0,0003.91,0007.55,0003.59
2023-04-05 03:04:00,,0822.5,5.01,0.00,22.9,22.7,00.0,31.1,24.5,11.4,0000.0,0003.89,0007.41,0003.56
2023-04-05 03:05:00,,0822.6,5.01,0.00,22.9,22.3,00.0,31.1,24.4,11.4,0000.0,0003.85,0006.29,0003.56
2023-04-05 03:06:00,,0822.4,4.99,0.00,22.8,21.9,00.0,31.1,24.3,11.4,0000.0,0003.86,0006.54,0003.55
2023-04-05 03:07:00,,0822.6,4.99,0.00,22.8,21.5,00.0,31.1,24.2,11.4,0000.0,0003.85,0006.60,0003.55
2023-04-05 03:08:00,,0822.6,5.01,0.00,22.8,21.2,00.0,31.1,24.1,11.4,0000.0,0003.84,0006.15,0003.54
2023-04-05 03:09:00,,0822.8,5.00,0.00,22.7,21.0,00.0,31.1,24.1,11.5,0000.0,0003.84,0006.02,0003.55
2023-04-05 03:10:00,,0823.1,5.00,0.00,22.7,20.9,00.0,31.1,24.0,11.5,0000.0,0003.83,0006.05,0003.55
2023-04-05 03:11:00,,0823.1,5.00,0.00,22.6,20.7,00.0,31.1,24.0,11.5,0000.0,0003.88,0006.38,0003.56
2023-04-05 03:12:00,,0823.0,4.99,0.00,22.6,20.7,00.0,31.1,24.0,11.6,0000.0,0003.89,0006.77,0003.55
2023-04-05 03:13:00,,0822.7,5.02,0.00,22.6,21.3,00.0,31.0,24.3,11.6,0000.0,0003.89,0006.70,0003.56
2023-04-05 03:14:00,,0822.6,4.99,0.00,22.8,22.4,00.0,31.0,24.7,11.5,0000.0,0003.90,0006.71,0003.57
2023-04-05 03:15:00,,0822.7,5.00,0.00,22.9,23.2,00.0,31.0,24.9,11.4,0000.0,0003.89,0006.67,0003.57
2023-04-05 03:16:00,,0822.6,4.99,0.00,22.9,23.0,00.0,31.1,24.7,11.4,0000.0,0003.91,0006.74,0003.58
2023-04-05 03:17:00,,0822.7,5.00,0.00,22.9,22.6,00.0,31.1,24.5,11.4,0000.0,0003.92,0006.44,0003.59
2023-04-05 03:18:00,,0822.7,5.01,0.00,22.9,22.2,00.0,31.1,24.4,11.4,0000.0,0003.94,0006.38,0003.61
2023-04-05 03:19:00,,0822.7,5.00,0.00,22.9,21.8,00.0,31.2,24.3,11.4,0000.0,0003.99,0006.64,0003.63
2023-04-05 03:20:00,,0822.7,5.00,0.00,22.8,21.5,00.0,31.2,24.3,11.5,0000.0,0004.00,0006.74,0003.63
2023-04-05 03:21:00,,0822.7,4.99,0.00,22.8,21.3,00.0,31.2,24.2,11.5,0000.0,0003.99,0006.66,0003.63
2023-04-05 03:22:00,,0822.8,5.00,0.00,22.7,21.0,00.0,31.1,24.1,11.5,0000.0,0003.95,0006.45,0003.62
2023-04-05 03:23:00,,0822.8,5.00,0.00,22.7,20.8,00.0,31.1,24.0,11.5,0000.0,0003.92,0005.92,0003.63
2023-04-05 03:24:00,,0822.8,5.00,0.00,22.6,20.7,00.0,31.1,24.0,11.5,0000.0,0003.91,0005.80,0003.61
2023-04-05 03:25:00,,0822.8,4.99,0.00,22.6,20.7,00.0,31.1,24.0,11.5,0000.0,0003.89,0005.73,0003.59
2023-04-05 03:26:00,,0823.2,5.01,0.00,22.7,21.5,00.0,31.0,24.4,11.5,0000.0,0003.88,0005.66,0003.57
2023-04-05 03:27:00,,0823.0,5.00,0.00,22.8,22.6,00.0,31.0,24.8,11.4,0000.0,0003.85,0005.63,0003.54
2023-04-05 03:28:00,,0822.8,5.01,0.00,22.9,23.2,00.0,31.0,24.9,11.3,0000.0,0003.82,0005.66,0003.50
2023-04-05 03:29:00,,0823.2,4.99,0.00,22.9,23.0,00.0,31.1,24.7,11.3,0000.0,0003.78,0005.93,0003.47
2023-04-05 03:30:00,,0823.1,5.00,0.00,22.9,22.6,00.0,31.1,24.6,11.4,0000.0,0003.74,0006.43,0003.47
2023-04-05 03:31:00,,0822.9,5.01,0.00,22.9,22.2,00.0,31.2,24.4,11.4,0000.0,0003.73,0006.38,0003.46
2023-04-05 03:32:00,,0822.7,5.00,0.00,22.8,21.9,00.0,31.2,24.3,11.4,0000.0,0003.72,0006.38,0003.45
2023-04-05 03:33:00,,0822.8,5.00,0.00,22.8,21.6,00.0,31.2,24.2,11.4,0000.0,0003.73,0006.62,0003.43
2023-04-05 03:34:00,,0823.3,4.99,0.00,22.8,21.3,00.0,31.2,24.2,11.4,0000.0,0003.71,0007.03,0003.41
2023-04-05 03:35:00,,0823.2,5.00,0.00,22.7,21.1,00.0,31.1,24.1,11.4,0000.0,0003.71,0007.10,0003.40
2023-04-05 03:36:00,,0823.0,5.00,0.00,22.7,20.9,00.0,31.1,24.0,11.4,0000.0,0003.70,0007.10,0003.39
2023-04-05 03:37:00,,0823.0,5.01,0.00,22.6,20.8,00.0,31.1,24.0,11.4,0000.0,0003.70,0007.25,0003.39
2023-04-05 03:38:00,,0822.8,5.00,0.00,22.6,20.8,00.0,31.1,24.0,11.5,0000.0,0003.72,0007.41,0003.39
2023-04-05 03:39:00,,0823.0,5.00,0.00,22.7,21.7,00.0,31.0,24.4,11.4,0000.0,0003.70,0007.32,0003.39
2023-04-05 03:40:00,,0823.0,5.00,0.00,22.8,22.8,00.0,31.0,24.8,11.3,0000.0,0003.67,0006.92,0003.38
2023-04-05 03:41:00,,0823.0,4.99,0.00,22.9,23.1,00.0,31.1,24.8,11.3,0000.0,0003.64,0006.19,0003.36
2023-04-05 03:42:00,,0822.9,4.98,0.00,22.9,22.7,00.0,31.1,24.6,11.3,0000.0,0003.61,0006.07,0003.34
2023-04-05 03:43:00,,0822.9,5.01,0.00,22.9,22.3,00.0,31.1,24.4,11.3,0000.0,0003.60,0006.00,0003.33
2023-04-05 03:44:00,,0822.9,5.00,0.00,22.8,21.9,00.0,31.2,24.2,11.3,0000.0,0003.57,0005.78,0003.32
2023-04-05 03:45:00,,0823.0,5.01,0.00,22.8,21.6,00.0,31.2,24.1,11.4,0000.0,0003.56,0005.24,0003.32
2023-04-05 03:46:00,,0822.9,5.01,0.00,22.7,21.2,00.0,31.1,24.1,11.4,0000.0,0003.55,0005.15,0003.32
2023-04-05 03:47:00,,0823.0,4.98,0.00,22.7,21.0,00.0,31.1,24.0,11.5,0000.0,0003.58,0005.19,0003.35
2023-04-05 03:48:00,,0822.9,5.00,0.00,22.6,20.8,00.0,31.1,24.0,11.5,0000.0,0003.62,0005.31,0003.37
2023-04-05 03:49:00,,0822.9,5.00,0.00,22.6,20.7,00.0,31.1,23.9,11.5,0000.0,0003.62,0005.53,0003.39
2023-04-05 03:50:00,,0823.0,5.01,0.00,22.5,20.6,00.0,31.1,23.9,11.6,0000.0,0003.65,0005.83,0003.41
2023-04-05 03:51:00,,0823.0,5.00,0.00,22.5,20.5,00.0,31.0,23.8,11.6,0000.0,0003.67,0005.90,0003.44
2023-04-05 03:52:00,,0823.0,5.00,0.00,22.5,21.2,00.0,30.9,24.2,11.5,0000.0,0003.71,0005.90,0003.46
2023-04-05 03:53:00,,0823.1,5.00,0.00,22.7,22.4,00.0,30.9,24.6,11.5,0000.0,0003.72,0005.83,0003.47
2023-04-05 03:54:00,,0823.1,4.99,0.00,22.8,23.1,00.0,31.0,24.7,11.4,0000.0,0003.75,0005.89,0003.49
2023-04-05 03:55:00,,0823.1,4.98,0.00,22.8,22.9,00.0,31.0,24.6,11.4,0000.3,0003.77,0005.96,0003.52
2023-04-05 03:56:00,,0823.1,5.00,0.00,22.8,22.5,00.0,31.1,24.4,11.4,0000.1,0003.79,0006.04,0003.54
2023-04-05 03:57:00,,0823.1,5.01,0.00,22.8,22.1,00.0,31.1,24.2,11.4,0000.0,0003.80,0006.12,0003.54
2023-04-05 03:58:00,,0823.1,5.00,0.00,22.7,21.8,00.0,31.1,24.1,11.4,0000.4,0003.83,0006.37,0003.55
2023-04-05 03:59:00,,0823.0,5.01,0.00,22.7,21.5,00.0,31.1,24.1,11.5,0000.0,0003.85,0006.41,0003.56
